Wind_Speed
48 46 46 48 50 49 47 49 52 58 61 61 63 65 66 67 67 70 73 76 82 85 86 79 74 68 65 63 59 58 61 68 80 76 73 70 67 68 70 67 65 61 61 62 62
48 48 46 48 51 51 49 50 59 54 52 54 55 56 58 61 66 70 77 80 80 86 89 86 80 73 67 65 62 58 59 67 66 70 75 73 74 73 70 65 64 62 62 65 64
48 48 49 48 53 51 50 53 53 40 41 45 47 51 52 55 60 66 79 82 85 83 92 89 85 78 70 68 61 57 59 63 58 54 65 70 69 70 70 67 60 61 61 61 61
47 49 50 50 54 53 53 56 46 40 42 43 45 51 53 57 63 66 77 85 88 88 90 92 90 83 73 67 65 62 63 60 57 53 55 61 63 63 64 63 65 62 59 53 53
48 48 50 50 53 54 54 54 42 43 44 47 50 54 59 63 74 73 77 83 91 93 91 95 94 88 78 70 68 64 62 60 55 48 50 50 53 55 59 58 53 51 50 48 48
49 47 52 51 53 53 55 51 42 44 45 49 55 59 64 74 80 79 77 84 88 97 97 96 94 93 85 76 70 66 63 59 52 48 48 46 44 50 51 43 49 47 46 45 44
49 47 52 51 54 52 55 48 40 44 48 55 60 64 67 80 84 86 83 83 88 97 102 100 99 97 89 78 73 67 61 56 51 49 48 42 43 41 37 42 43 43 42 42 39
50 47 51 50 54 53 55 49 42 45 53 58 64 68 67 78 80 84 75 72 85 94 105 107 102 100 91 81 78 68 61 55 53 51 48 42 40 32 36 38 39 40 38 38 36
49 47 51 52 54 52 55 49 44 52 58 65 69 66 59 66 68 69 62 71 87 95 107 111 103 100 95 84 77 68 58 59 57 54 49 47 41 38 35 35 36 35 35 33 32
49 46 50 52 54 51 55 50 47 55 63 66 70 61 53 52 56 53 52 63 85 100 106 112 103 101 96 84 66 62 59 65 62 56 50 45 42 37 34 31 32 32 30 29 30
46 45 49 52 56 52 55 49 50 58 65 70 65 53 45 44 45 45 47 58 71 81 95 107 101 100 88 76 73 68 71 65 62 58 48 45 47 36 34 30 28 28 26 22 20
45 44 48 53 56 51 55 47 55 61 65 70 60 46 39 38 39 39 45 51 59 73 93 106 95 96 88 80 75 75 69 65 57 55 49 45 47 36 34 29 26 26 22 20 16
44 43 46 51 55 51 53 49 56 62 69 68 55 41 31 30 32 36 43 49 61 80 96 98 92 96 88 80 75 70 68 66 59 56 50 46 43 36 34 29 27 27 24 22 15
43 42 44 49 53 53 48 49 58 65 68 61 47 38 27 26 28 34 39 51 65 83 96 91 97 95 87 79 74 71 69 62 58 56 50 46 39 35 33 29 29 30 24 23 21
42 40 42 48 48 52 45 51 56 64 66 52 40 28 22 25 28 34 39 50 66 82 92 91 95 92 82 77 76 76 70 58 59 54 51 46 42 37 34 31 31 29 26 25 26
40 37 39 46 44 44 43 49 56 60 60 48 37 22 13 19 29 33 43 58 79 90 89 94 93 87 84 82 80 75 66 59 60 54 52 47 45 35 34 33 32 30 32 28 27
37 33 37 44 41 39 41 47 55 56 50 44 31 15 7 16 28 38 53 71 86 91 93 100 99 92 87 83 78 71 65 62 58 53 53 46 44 37 36 34 33 32 34 32 31
34 30 34 38 38 35 37 45 48 47 40 33 24 12 8 18 31 47 61 78 86 91 98 98 94 90 84 77 70 68 66 62 56 55 52 46 46 37 33 32 32 33 34 35 34
30 28 31 34 32 32 34 40 41 38 29 23 18 13 19 27 40 53 73 83 85 89 95 96 91 92 83 76 72 69 64 59 59 58 54 49 46 41 36 32 33 34 36 36 37
27 24 28 31 27 29 29 36 31 27 20 16 16 17 27 32 46 60 71 76 79 87 93 94 89 80 79 77 72 70 65 61 59 59 55 51 48 44 41 36 35 36 38 39 40
24 21 25 27 22 24 25 28 21 18 16 16 20 23 29 41 50 57 61 65 71 81 88 87 84 80 79 75 70 67 63 61 60 57 54 53 50 47 44 42 40 39 38 40 43
20 19 22 22 17 18 20 16 13 13 18 21 24 28 31 39 42 45 53 58 64 74 80 81 78 77 76 72 72 70 68 65 58 57 58 60 53 48 47 46 45 46 46 46 48
19 18 19 18 15 15 12 10 6 13 20 23 27 31 31 36 37 47 51 55 62 71 78 78 76 73 70 69 67 63 62 63 64 66 62 59 61 56 52 50 49 49 51 52 53
20 19 17 17 14 10 5 4 6 13 18 19 20 22 25 25 35 41 46 51 60 71 78 79 77 72 70 70 68 65 68 71 70 63 65 63 65 58 55 53 53 56 56 57 58
20 19 17 13 16 12 7 2 12 14 16 19 20 20 25 25 25 30 39 44 51 64 73 75 75 73 71 71 71 70 65 64 61 67 61 67 62 64 60 62 62 62 63 63 64
22 20 17 10 19 18 13 6 15 16 17 18 17 19 20 21 25 32 36 41 45 56 67 74 75 73 71 70 69 68 66 63 63 65 64 68 69 72 66 66 65 65 67 68 68
25 20 17 12 21 19 15 9 9 18 19 19 19 18 17 18 19 21 27 35 40 44 56 70 74 73 72 71 68 65 67 69 68 67 69 67 75 68 68 68 69 69 69 70 71
Wind_Direction
287 288 291 292 294 295 292 292 291 286 280 273 266 263 260 256 249 242 242 238 235 234 231 227 228 230 232 232 232 227 229 234 231 232 232 234 237 242 249 252 257 260 262 264 266
288 289 295 295 297 298 297 294 296 287 278 272 269 265 259 255 251 244 238 235 233 232 232 227 225 226 228 228 230 230 229 233 235 233 231 234 239 242 245 249 254 256 260 263 268
289 289 295 297 299 299 301 304 303 289 286 284 276 269 268 262 254 244 239 233 230 229 231 227 224 224 223 225 227 228 229 230 234 231 231 235 237 241 245 249 254 255 259 260 267
291 290 297 301 304 305 307 313 305 302 293 291 283 277 272 265 260 255 246 233 229 225 227 226 222 222 219 220 222 222 226 228 229 228 226 229 234 239 244 248 253 259 260 259 264
292 292 299 303 308 308 310 313 302 300 297 292 285 276 269 270 264 257 250 240 229 224 222 224 219 217 217 214 218 216 221 223 224 223 224 225 230 238 241 247 254 251 254 261 264
293 293 299 305 309 308 310 310 301 299 289 288 278 274 271 266 263 263 254 245 233 223 219 220 218 214 214 211 212 212 216 220 219 219 222 221 224 233 242 245 244 251 257 261 263
294 293 299 306 309 308 310 306 301 293 289 284 283 280 280 274 268 264 259 248 234 222 216 215 216 211 211 209 208 210 214 216 214 209 215 217 222 233 236 236 245 248 252 255 257
293 293 299 305 309 308 309 303 296 290 290 291 286 285 280 276 273 266 260 241 228 219 213 212 212 207 208 206 206 209 211 211 208 206 214 212 216 223 221 231 233 241 247 251 254
291 293 298 305 309 306 309 307 294 294 297 297 299 291 284 278 272 266 254 232 219 216 210 208 207 203 205 204 205 208 208 208 206 207 210 214 211 213 216 224 227 233 239 248 255
290 293 297 305 309 306 309 307 297 297 298 300 303 294 287 281 272 260 240 225 218 216 207 205 203 199 202 201 202 206 210 210 207 207 209 215 207 217 218 223 225 232 241 251 258
289 293 298 305 309 309 309 303 298 299 305 305 304 296 292 282 268 250 231 222 217 214 205 201 200 195 197 196 198 200 202 207 207 205 207 215 210 214 218 222 224 230 239 253 262
288 293 299 305 310 311 308 300 301 306 311 313 306 298 295 277 263 239 222 215 210 203 198 198 194 190 194 194 194 197 200 206 205 200 206 212 207 211 216 221 226 231 242 248 262
286 292 299 304 309 310 307 300 303 309 315 315 308 307 292 266 250 227 215 209 200 194 192 191 188 188 191 192 194 197 201 206 202 196 206 212 207 209 217 221 230 236 247 256 259
286 291 298 304 310 310 307 303 311 315 320 316 316 312 294 259 233 217 210 203 194 188 184 183 185 187 190 190 192 195 201 203 199 191 206 212 212 213 215 219 230 238 248 255 266
282 290 298 305 310 311 307 307 319 319 324 322 321 309 279 249 220 206 200 194 187 179 179 181 180 186 186 188 191 197 199 197 191 191 205 210 216 215 221 225 233 242 251 258 266
279 289 299 306 310 310 304 314 320 326 325 330 329 317 279 230 204 195 185 181 175 173 176 177 182 185 187 190 192 194 197 195 191 195 204 211 218 214 224 231 236 240 253 262 270
277 290 299 308 314 305 309 316 325 331 329 333 336 335 270 197 188 185 175 175 172 171 174 176 183 185 190 190 191 194 195 199 197 198 206 212 222 219 225 233 241 248 255 263 272
275 289 299 307 313 301 312 323 333 335 334 340 346 360 137 162 172 170 170 166 169 173 175 179 183 186 189 188 191 196 197 202 203 205 211 214 224 226 223 234 244 251 259 265 273
271 285 299 306 309 299 313 328 339 340 346 353 10 71 122 142 154 164 166 166 172 176 176 180 183 188 187 188 194 197 199 203 206 209 213 217 223 229 233 237 247 253 259 264 271
265 280 298 303 307 294 314 333 343 350 7 27 49 94 121 139 157 165 165 170 174 178 178 183 187 186 187 191 194 197 201 205 209 212 215 221 223 228 240 240 246 254 260 266 271
258 274 293 300 302 293 314 336 356 15 43 65 83 102 126 146 153 158 168 174 179 180 182 186 189 188 191 193 195 200 204 209 213 216 219 226 230 231 240 249 254 258 265 269 273
250 267 287 296 290 288 316 345 12 55 77 91 101 108 123 135 148 161 171 176 181 183 187 190 193 193 194 196 200 202 206 211 216 222 223 227 235 240 242 250 258 262 267 272 275
242 257 276 291 269 274 311 2 55 89 100 108 114 124 131 144 156 168 175 180 183 186 190 195 197 199 199 200 203 207 211 215 219 224 229 233 239 242 247 252 257 265 270 274 275
232 249 263 289 246 251 293 12 144 117 122 121 126 131 137 147 160 168 177 183 188 191 193 197 201 201 202 205 208 212 213 217 221 227 233 236 241 245 251 257 262 265 271 274 276
223 241 256 282 228 216 229 292 170 142 137 139 145 146 146 148 157 175 180 185 193 196 198 200 204 206 208 210 213 217 219 222 225 230 237 243 249 252 255 258 263 268 270 272 275
219 233 245 262 218 219 217 233 168 166 153 158 163 154 150 151 164 170 180 187 192 197 201 204 207 210 213 216 218 222 224 227 229 233 237 242 246 251 254 259 263 266 269 273 276
216 226 231 240 210 205 179 160 161 174 172 168 170 168 164 163 170 180 184 190 195 197 204 207 210 213 216 219 222 225 228 230 233 237 241 245 248 253 256 260 264 267 270 273 276
Height
10672 10669 10666 10662 10659 10656 10651 10647 10643 10641 10636 10635 10635 10637 10639 10641 10647 10653 10656 10659 10668 10676 10687 10700 10710 10721 10731 10740 10748 10754 10763 10766 10773 10785 10795 10799 10803 10806 10808 10814 10818 10823 10825 10827 10830
10660 10657 10654 10650 10647 10643 10639 10634 10628 10620 10617 10615 10616 10616 10619 10621 10624 10631 10631 10639 10649 10659 10667 10684 10695 10706 10720 10728 10737 10746 10753 10755 10762 10774 10783 10786 10792 10795 10800 10807 10812 10815 10816 10818 10819
10649 10646 10643 10639 10634 10629 10625 10619 10611 10605 10603 10602 10601 10600 10602 10603 10604 10609 10608 10618 10627 10644 10648 10665 10681 10693 10707 10717 10729 10737 10742 10743 10755 10764 10770 10775 10781 10784 10792 10799 10804 10805 10807 10808 10811
10639 10634 10632 10626 10620 10614 10609 10602 10594 10589 10588 10587 10586 10587 10587 10587 10585 10588 10586 10593 10603 10619 10628 10644 10663 10680 10695 10709 10716 10725 10727 10737 10747 10754 10760 10765 10769 10777 10782 10790 10795 10799 10797 10798 10801
10627 10622 10619 10614 10608 10600 10595 10588 10581 10578 10575 10573 10572 10573 10570 10567 10563 10561 10564 10568 10579 10594 10609 10620 10642 10663 10681 10692 10701 10712 10718 10728 10739 10747 10750 10756 10762 10765 10770 10788 10789 10783 10786 10792 10793
10616 10611 10606 10601 10596 10588 10581 10574 10568 10565 10562 10559 10556 10553 10547 10541 10532 10532 10538 10542 10551 10568 10587 10601 10626 10645 10660 10674 10690 10697 10706 10719 10734 10739 10744 10749 10754 10755 10773 10781 10770 10777 10782 10784 10785
10605 10600 10594 10588 10583 10577 10569 10561 10555 10551 10546 10540 10537 10530 10523 10503 10502 10498 10503 10509 10517 10536 10559 10579 10599 10624 10645 10661 10676 10687 10699 10714 10726 10732 10737 10743 10745 10753 10768 10765 10769 10772 10774 10776 10777
10593 10588 10583 10579 10572 10564 10556 10547 10541 10537 10529 10522 10514 10505 10495 10472 10470 10466 10471 10477 10485 10506 10532 10553 10577 10607 10632 10649 10661 10678 10692 10710 10717 10725 10730 10737 10741 10754 10755 10759 10762 10765 10767 10769 10771
10582 10577 10572 10567 10562 10553 10545 10534 10528 10520 10512 10501 10488 10476 10466 10449 10439 10434 10441 10442 10456 10479 10506 10527 10558 10594 10616 10638 10653 10673 10691 10700 10710 10716 10725 10728 10740 10744 10748 10752 10755 10758 10762 10763 10764
10573 10567 10561 10556 10550 10541 10533 10522 10514 10506 10493 10479 10463 10450 10437 10426 10416 10412 10417 10425 10435 10452 10481 10511 10543 10579 10604 10627 10661 10676 10684 10687 10699 10710 10717 10723 10735 10737 10741 10745 10750 10753 10755 10756 10757
10563 10556 10549 10544 10538 10528 10520 10509 10501 10489 10476 10461 10445 10428 10417 10406 10398 10398 10404 10413 10423 10442 10472 10504 10535 10570 10610 10634 10643 10658 10661 10678 10690 10703 10712 10716 10728 10729 10734 10739 10743 10745 10748 10749 10750
10553 10547 10539 10532 10526 10516 10507 10497 10486 10474 10460 10442 10425 10410 10400 10391 10385 10387 10394 10402 10417 10437 10462 10493 10536 10573 10600 10617 10630 10642 10657 10671 10686 10697 10703 10711 10719 10723 10728 10734 10737 10740 10742 10744 10744
10542 10537 10530 10523 10515 10506 10497 10486 10473 10457 10445 10427 10407 10395 10385 10379 10376 10378 10386 10397 10410 10427 10456 10502 10543 10564 10589 10607 10624 10641 10653 10662 10676 10689 10698 10704 10710 10717 10722 10727 10730 10734 10735 10738 10737
10533 10527 10522 10515 10504 10495 10484 10474 10460 10443 10430 10412 10395 10384 10375 10370 10370 10375 10384 10394 10408 10430 10466 10507 10531 10560 10584 10603 10619 10634 10643 10658 10672 10684 10692 10698 10704 10710 10715 10721 10724 10726 10729 10730 10731
10524 10519 10513 10505 10497 10485 10475 10463 10452 10434 10417 10401 10385 10374 10367 10364 10366 10373 10381 10397 10416 10445 10476 10504 10532 10555 10580 10600 10612 10621 10637 10652 10667 10677 10685 10691 10696 10703 10708 10713 10717 10720 10722 10722 10724
10514 10510 10504 10496 10489 10477 10466 10456 10444 10428 10408 10392 10377 10367 10362 10361 10366 10374 10385 10401 10425 10454 10482 10507 10535 10558 10573 10585 10600 10617 10634 10648 10660 10669 10678 10683 10689 10698 10703 10707 10710 10713 10714 10715 10716
10505 10502 10497 10489 10482 10470 10461 10452 10439 10423 10406 10389 10374 10365 10361 10362 10369 10377 10389 10407 10432 10458 10481 10505 10524 10547 10564 10579 10598 10615 10630 10641 10654 10664 10670 10677 10682 10689 10696 10700 10703 10705 10706 10707 10708
10496 10493 10490 10482 10474 10465 10457 10448 10436 10422 10405 10389 10377 10367 10364 10367 10375 10384 10400 10424 10447 10464 10482 10507 10524 10542 10566 10586 10608 10619 10628 10639 10651 10657 10665 10672 10674 10682 10689 10694 10697 10698 10698 10699 10700
10488 10486 10483 10477 10469 10461 10455 10447 10435 10422 10409 10396 10386 10377 10376 10381 10389 10403 10419 10436 10454 10472 10493 10511 10531 10540 10566 10585 10598 10611 10625 10637 10644 10650 10657 10663 10667 10675 10682 10688 10689 10690 10691 10692 10693
10480 10479 10476 10471 10464 10458 10453 10447 10436 10426 10415 10405 10399 10393 10392 10398 10410 10424 10440 10452 10467 10483 10500 10514 10530 10552 10568 10579 10593 10605 10616 10628 10638 10642 10651 10654 10661 10669 10672 10678 10681 10682 10683 10684 10685
10472 10472 10470 10465 10460 10456 10453 10447 10439 10431 10424 10418 10414 10411 10412 10418 10432 10447 10459 10471 10482 10496 10511 10523 10535 10552 10564 10579 10593 10605 10617 10626 10630 10638 10646 10647 10653 10660 10666 10668 10672 10674 10676 10676 10676
10464 10465 10464 10460 10457 10454 10453 10448 10443 10438 10434 10431 10430 10430 10436 10440 10451 10462 10472 10482 10495 10509 10523 10530 10542 10553 10565 10578 10587 10597 10607 10616 10628 10632 10637 10637 10645 10653 10659 10661 10662 10664 10666 10666 10665
10455 10458 10458 10455 10453 10452 10452 10449 10447 10443 10441 10443 10443 10444 10448 10452 10459 10466 10476 10487 10498 10509 10522 10532 10544 10556 10570 10579 10589 10602 10609 10614 10618 10620 10628 10636 10637 10641 10647 10652 10655 10657 10657 10656 10656
10448 10450 10452 10451 10450 10451 10451 10449 10449 10447 10447 10449 10452 10454 10457 10463 10466 10471 10480 10489 10497 10505 10516 10527 10539 10554 10565 10573 10583 10592 10595 10599 10607 10619 10621 10628 10625 10635 10639 10642 10646 10646 10647 10647 10645
10441 10444 10445 10445 10446 10448 10449 10448 10449 10449 10451 10452 10454 10458 10460 10466 10471 10477 10483 10490 10499 10509 10519 10531 10540 10550 10558 10566 10573 10581 10593 10602 10613 10611 10620 10615 10623 10623 10631 10633 10633 10635 10636 10635 10634
10433 10437 10439 10439 10441 10445 10447 10448 10448 10451 10453 10455 10458 10461 10465 10470 10474 10476 10483 10490 10496 10504 10515 10524 10534 10544 10553 10561 10571 10579 10587 10596 10603 10606 10610 10609 10610 10607 10619 10621 10624 10624 10623 10623 10621
10426 10430 10433 10434 10437 10441 10444 10445 10446 10449 10453 10456 10459 10463 10467 10471 10475 10481 10487 10491 10496 10503 10511 10521 10529 10539 10547 10555 10565 10576 10581 10584 10590 10597 10597 10602 10590 10606 10608 10610 10611 10612 10612 10610 10607